Regional Weather Roundup
Issued by NWS Charleston, WV

Home | Current Version | Previous Version | Graphics & Text | Print | Product List | Glossary On
Versions: 1 2 3 4 5 6 7 8 9 10 11 12 13 14 15 16 17 18 19 20 21 22 23 24 25 26 27 28 29 30 31 32 33 34 35 36 37 38 39 40 41 42 43 44 45 46 47 48 49 50
000
ASUS41 KRLX 052110
RWRRLX
West Virginia Regional Weather Roundup
National Weather Service Charleston WV
500 PM EDT TUE MAY 05 2015

Note: "fair" indicates few or no clouds below 12,000 feet with no
significant weather and/or obstructions to visibility.

WVZ003-052200-
Northern Panhandle of West Virginia

CITY           SKY/WX    TMP DP  RH WIND       PRES   REMARKS
WHEELING       MOSUNNY   75  59  57 N7        30.22F
$$

WVZ009-052200-
Northwest West Virginia

CITY           SKY/WX    TMP DP  RH WIND       PRES   REMARKS
PARKERSBURG    MOSUNNY   79  60  52 NE6       30.23F
$$

WVZ006-052200-
Western West Virginia

CITY           SKY/WX    TMP DP  RH WIND       PRES   REMARKS
HUNTINGTON     MOSUNNY   80  52  37 W5        30.21F
$$

WVZ015-052200-
West Central West Virginia

CITY           SKY/WX    TMP DP  RH WIND       PRES   REMARKS
CHARLESTON     PTSUNNY   86  52  30 VRB7      30.21F
$$

WVZ022-031-052200-
North Central West Virginia

CITY           SKY/WX    TMP DP  RH WIND       PRES   REMARKS
CLARKSBURG     PTSUNNY   78  57  48 W3        30.22F
MORGANTOWN     PTSUNNY   79  55  43 N6        30.23F
$$

WVZ025-035-042-045-052200-
Southern West Virginia

CITY           SKY/WX    TMP DP  RH WIND       PRES   REMARKS
BECKLEY        CLOUDY    76  47  35 W3        30.29F
LOGAN          PTSUNNY   81  52  36 VRB6      30.21F
BLUEFIELD      CLOUDY    77  46  33 W6        30.30F
LEWISBURG        N/A     77  50  38 SW5       30.28F
$$

WVZ047-052200-
Northern Mountains of West Virginia

CITY           SKY/WX    TMP DP  RH WIND       PRES   REMARKS
ELKINS         HVY RAIN  71  57  61 SW10      30.27F
$$

WVZ052-052200-
Eastern Panhandle of West Virginia

CITY           SKY/WX    TMP DP  RH WIND       PRES   REMARKS
MARTINSBURG    PTSUNNY   74  57  55 S7        30.20F
PETERSBURG     LGT RAIN  77  53  43 N5        30.21S
$$



USA.gov is the U.S. government's official web portal to all federal, state and local government web resources and services.